Theta_e
309 308 307 307 307 308 308 309 310 310 312 313 316 320 321 320 326 331 334 335 336 335 335 338 336 336 336 334 333 333 332 330 329 309 312 308 305 305 305 302 302 301 302
308 307 307 306 306 307 307 309 310 310 311 313 321 322 321 323 328 331 334 333 334 331 330 329 327 327 325 325 328 328 327 323 316 308 305 303 302 301 302 301 302 303 303
307 306 305 305 305 306 307 308 309 310 311 314 324 323 321 326 329 332 330 328 325 321 321 321 318 319 315 315 315 312 313 311 309 303 299 299 299 300 299 301 301 302 302
306 305 304 304 305 305 307 308 309 310 311 315 321 322 321 328 327 325 323 321 318 315 314 314 312 312 310 309 308 307 306 303 302 301 299 299 299 298 299 300 299 299 299
304 304 304 304 304 305 307 308 308 310 312 318 321 322 322 324 321 319 317 315 311 310 309 309 308 307 307 308 308 305 304 303 302 300 298 296 297 297 298 299 299 299 299
303 303 303 303 304 306 306 308 307 310 312 317 323 321 320 318 316 315 313 310 309 308 306 305 306 306 306 304 304 304 304 302 297 296 297 297 296 298 299 300 299 298 295
303 302 302 303 304 305 307 305 308 311 313 320 317 317 314 311 313 311 310 308 306 305 304 304 303 304 304 304 303 303 303 302 301 298 296 296 298 299 300 300 299 298 298
301 302 303 304 304 303 304 304 309 311 314 312 313 310 309 307 311 311 310 307 304 303 302 302 303 303 303 302 301 297 296 296 297 298 299 299 299 299 299 299 298 298 298
302 303 302 301 301 302 304 305 310 312 311 309 307 306 305 303 307 311 309 304 302 301 301 301 300 301 297 296 296 296 296 296 297 297 297 297 298 299 299 299 297 297 296
299 299 300 302 303 303 304 306 309 307 305 304 303 302 302 301 302 303 302 300 299 298 297 297 297 297 297 297 297 297 297 296 297 297 297 298 299 299 298 299 298 297 296
299 300 299 300 302 303 304 308 305 303 301 301 301 301 301 300 300 299 299 299 297 298 299 298 299 298 298 298 298 297 297 297 297 300 299 299 299 299 298 298 298 299 297
297 298 299 300 300 302 307 304 302 301 300 299 298 298 298 299 299 299 298 297 299 299 300 300 299 299 299 298 297 297 297 297 299 300 299 299 299 299 299 299 298 298 298
298 298 299 300 303 305 304 301 299 299 299 298 298 297 298 298 299 298 298 299 299 299 297 296 298 298 298 296 295 296 296 298 299 299 300 299 299 299 299 298 298 299 298
298 299 301 305 304 303 302 300 299 299 299 298 298 298 297 297 298 298 297 297 297 297 296 297 297 296 296 295 295 295 296 297 299 300 299 297 297 297 297 298 299 299 299
300 301 299 299 297 297 297 298 298 299 298 298 297 297 296 295 295 296 296 297 297 297 297 296 295 295 295 295 295 295 295 297 298 297 297 296 296 297 297 298 299 298 297
298 298 298 297 296 296 295 295 297 297 296 296 296 295 295 296 296 296 296 297 297 297 296 295 294 294 294 294 294 293 294 294 294 295 296 296 295 296 297 297 298 298 297
297 297 297 296 296 295 294 294 293 293 294 295 295 295 296 296 297 297 296 296 295 295 294 294 294 294 293 293 293 293 292 293 293 293 294 294 294 295 296 297 298 298 297
295 296 295 295 295 295 294 294 294 294 294 294 295 296 296 296 296 295 295 295 294 294 293 293 292 293 292 292 292 292 292 292 292 292 293 293 293 294 294 296 297 297 297
296 296 296 295 295 294 294 294 294 295 295 295 296 297 296 295 295 295 295 293 292 293 293 292 292 292 292 291 291 291 291 291 291 292 292 292 292 293 294 295 296 297 296
295 295 295 294 294 294 295 296 296 296 296 296 295 294 295 295 293 293 293 293 292 292 292 292 292 292 291 291 290 290 291 291 290 290 291 291 291 292 294 295 295 296 296
295 294 294 295 296 297 297 297 296 296 296 294 293 294 294 292 291 291 291 291 291 291 291 291 291 290 290 290 290 290 289 289 289 290 290 291 290 292 293 293 293 294 294
295 296 296 296 296 296 297 296 296 295 293 292 291 292 293 291 291 290 291 291 291 291 290 290 289 289 289 289 288 289 289 289 289 289 290 290 290 291 292 292 292 293 293
295 296 296 296 296 296 296 295 293 292 292 291 291 291 291 290 290 289 288 288 288 289 289 289 289 288 288 288 287 287 288 288 288 289 289 289 289 290 291 291 290 291 292
295 296 296 295 294 294 293 292 292 292 291 291 290 289 289 288 287 286 286 287 287 287 287 287 288 288 288 287 287 286 287 288 288 288 288 289 288 288 289 289 289 290 291
294 294 294 293 292 292 293 292 292 291 291 290 289 289 288 287 286 286 286 286 287 287 287 287 287 288 288 287 287 286 286 287 287 288 288 287 287 286 286 286 288 290 291
294 293 293 293 293 293 292 292 292 291 291 290 290 289 287 286 285 286 286 286 286 286 286 286 287 287 287 287 287 286 286 287 287 287 287 287 286 286 286 287 288 289 289
Wind_Speed
19 20 23 26 27 26 25 26 29 26 25 24 22 22 24 26 25 23 19 20 21 22 23 19 21 25 26 28 29 28 26 24 10 5 13 16 19 15 10 5 3 3 3
21 23 27 28 29 27 26 26 27 27 24 23 20 15 19 25 24 22 19 16 17 13 7 7 8 9 14 15 19 20 15 16 8 7 24 18 19 15 11 8 6 10 10
23 23 27 31 29 26 25 26 27 26 24 23 12 14 17 20 16 13 9 5 2 1 4 4 5 6 8 10 12 13 17 17 22 23 16 24 19 15 12 14 13 12 10
21 26 26 26 26 26 24 25 27 25 24 20 13 13 14 9 8 5 4 7 10 11 12 12 10 9 13 15 17 18 24 30 35 32 24 18 17 13 12 15 16 14 13
21 25 25 24 26 24 23 25 27 24 24 15 12 8 7 4 2 8 11 15 17 20 21 19 17 16 15 16 20 21 22 24 23 22 18 11 11 9 5 5 5 3 8
22 23 23 25 23 21 23 22 28 23 23 14 5 3 4 4 8 15 20 26 25 27 28 27 26 26 24 22 22 23 25 28 21 18 18 14 10 14 7 11 8 5 3
24 25 23 23 18 21 17 24 24 21 19 3 7 7 13 15 18 25 27 27 27 27 27 27 27 27 29 26 23 19 18 17 16 18 20 17 22 13 12 8 8 11 6
25 25 20 17 14 18 22 23 22 16 1 7 10 14 20 24 25 28 29 30 31 30 31 31 31 30 28 26 24 23 23 20 22 25 26 22 19 15 11 7 5 11 5
24 13 10 16 21 20 17 17 16 3 10 13 16 20 27 25 31 32 34 37 34 33 31 30 32 29 29 22 23 24 25 22 21 22 19 15 17 17 15 11 8 8 1
16 17 14 11 12 12 13 16 9 16 19 23 24 23 23 26 30 35 39 40 34 30 33 28 25 26 29 24 24 24 21 14 14 16 16 19 21 20 19 20 14 12 2
13 12 13 15 14 13 12 12 22 24 25 27 29 25 24 25 25 27 30 34 36 30 28 29 25 22 25 17 17 17 17 18 18 19 26 23 20 18 18 22 20 17 9
14 13 15 14 15 13 9 22 26 28 25 24 28 27 26 25 25 26 30 31 30 35 31 27 22 19 20 20 18 17 18 19 21 23 22 18 15 12 11 10 17 18 18
12 13 13 15 14 13 27 26 23 23 23 21 25 24 25 28 32 33 35 34 33 32 28 26 26 27 24 22 21 19 21 20 21 21 19 15 11 8 5 8 12 13 17
9 10 11 8 25 24 23 21 22 19 18 23 27 24 26 27 30 32 33 34 35 35 33 33 31 29 27 26 25 23 21 19 22 21 17 15 15 14 14 12 18 16 20
6 15 23 27 30 31 28 20 20 14 14 22 25 27 30 24 23 28 31 34 34 31 29 27 27 25 24 26 26 26 25 22 19 16 18 18 17 16 17 14 14 20 16
23 21 23 26 26 28 32 35 30 28 29 31 32 37 32 37 32 34 31 31 28 26 25 25 23 22 23 25 26 26 26 25 23 18 15 15 18 17 17 16 15 16 19
25 23 24 25 25 26 27 30 32 35 34 34 39 42 40 39 31 25 28 26 24 26 27 25 23 24 24 26 26 26 24 24 22 22 20 18 20 17 18 18 17 16 16
30 27 27 25 26 27 26 27 30 31 31 34 38 38 31 24 23 27 27 28 27 28 28 25 24 24 24 25 24 25 23 23 24 23 22 19 17 18 19 18 18 18 16
27 26 27 28 27 29 31 33 36 35 33 31 30 26 23 24 25 23 25 28 26 28 27 27 25 24 24 23 22 23 23 22 23 23 21 20 20 20 21 19 15 15 13
30 30 31 32 32 31 33 36 34 30 28 28 27 23 27 27 28 28 29 29 29 27 25 24 23 22 22 21 21 21 23 23 22 23 23 22 22 20 18 18 18 15 16
30 30 35 36 33 30 31 30 30 31 31 25 26 27 29 30 29 29 29 28 28 27 26 24 23 21 21 21 20 20 21 23 24 24 23 19 19 20 17 18 19 18 17
31 31 31 32 32 30 31 31 32 29 24 27 30 30 30 32 30 29 28 26 24 23 22 21 21 21 20 20 19 20 23 23 22 21 21 19 19 18 16 18 19 19 21
33 34 32 30 31 33 33 28 25 27 27 28 29 31 32 31 30 28 26 23 23 23 22 21 21 21 21 21 22 22 22 22 20 19 19 18 19 18 16 19 20 20 18
31 31 30 28 29 29 28 29 30 30 29 30 31 31 30 28 28 27 27 27 27 25 24 23 22 22 22 23 23 21 19 18 20 19 18 18 19 19 17 17 19 18 17
28 28 29 28 28 28 30 29 29 29 30 31 31 30 29 28 28 27 26 25 24 23 22 22 22 22 21 20 20 19 19 17 18 18 19 21 22 21 20 18 17 17 19
32 32 31 31 30 30 30 29 29 30 30 30 29 28 28 29 27 26 24 23 22 21 20 20 19 18 17 17 17 17 17 17 15 16 18 22 25 24 23 20 18 18 17
Wind_Direction
300 305 312 319 321 312 310 309 315 304 300 305 302 298 306 306 308 305 281 274 260 262 264 252 246 236 226 221 218 214 219 216 209 150 160 163 156 159 144 142 220 213 179
301 307 311 314 316 308 307 311 312 306 298 305 306 292 300 302 300 301 273 271 267 261 261 255 216 195 194 203 203 184 184 194 172 123 132 125 131 130 123 146 157 110 99
297 304 308 309 307 305 305 311 312 306 301 308 298 290 310 301 303 292 270 258 266 105 105 152 146 166 147 166 168 134 136 133 118 116 110 116 115 122 142 131 111 108 98
293 303 298 298 304 303 305 310 312 309 309 304 290 298 317 316 304 273 188 128 107 92 88 88 97 113 123 120 114 117 123 118 120 116 110 113 125 161 157 131 104 92 75
291 295 291 293 302 303 304 307 312 311 316 298 278 313 353 344 244 168 139 118 105 93 84 84 87 98 111 121 125 115 110 113 118 117 112 143 154 128 128 110 131 163 44
289 289 293 294 295 302 297 302 312 312 319 303 271 17 39 90 168 144 126 110 107 101 95 94 91 92 94 102 103 108 113 115 106 107 120 129 128 104 110 102 83 46 9
281 285 283 283 281 303 297 310 309 313 320 75 101 87 103 121 144 132 123 115 108 105 103 99 96 97 98 95 91 94 97 108 121 132 129 123 104 108 113 101 101 90 79
275 273 269 271 277 298 295 303 308 317 135 110 108 116 117 132 142 133 125 116 110 108 108 107 104 100 100 100 101 105 103 101 105 104 99 104 103 103 85 68 135 145 95
269 255 266 277 281 278 284 299 308 168 124 115 117 122 122 122 135 131 125 117 108 106 108 104 103 102 107 108 116 114 107 100 103 102 98 96 91 87 67 68 99 157 204
271 270 271 272 270 267 280 302 148 129 114 110 105 105 114 123 127 124 122 118 111 109 109 104 105 110 111 116 114 115 114 109 108 106 106 105 101 84 72 69 71 80 79
266 251 263 268 248 255 271 163 131 118 112 105 101 105 113 123 120 120 120 119 121 115 111 114 117 115 115 117 123 120 111 113 110 111 113 110 101 87 74 63 55 59 63
254 254 257 251 257 259 202 131 130 124 114 107 102 95 102 111 116 118 118 118 121 116 113 111 109 113 113 120 118 121 121 111 116 117 109 99 94 88 71 55 47 53 59
241 248 253 256 243 234 137 129 124 124 121 118 105 102 104 105 113 117 118 117 111 106 107 109 113 110 108 110 113 122 126 105 107 117 106 87 77 69 54 52 66 71 64
222 235 240 167 107 111 115 123 123 124 127 126 116 118 110 105 108 109 107 109 108 107 107 106 103 108 113 112 107 100 99 101 103 110 107 84 79 70 67 57 56 55 57
178 112 100 98 98 92 86 94 103 112 127 118 119 116 114 103 106 112 111 111 113 112 112 111 106 105 97 97 95 93 92 98 102 101 94 80 70 60 52 53 63 54 53
104 102 105 102 100 100 96 84 86 96 101 105 109 115 112 117 116 115 115 117 118 120 111 101 94 93 90 91 89 86 85 85 84 87 95 87 63 53 49 51 58 58 47
98 97 94 99 102 103 102 103 97 88 97 106 114 117 117 116 109 111 114 115 118 115 97 94 94 95 94 90 88 85 80 79 82 78 77 80 64 57 50 45 53 58 43
91 94 96 98 100 100 102 105 105 101 99 96 110 113 113 104 104 113 123 119 106 102 99 97 96 102 95 89 85 83 82 77 74 73 71 70 68 61 54 49 51 46 38
98 98 98 98 101 106 107 106 104 105 105 105 110 106 102 105 109 111 119 107 101 105 108 101 98 94 90 89 86 83 79 77 72 70 70 70 62 58 52 47 48 48 45
91 97 101 101 102 102 105 106 106 104 101 101 104 108 113 118 106 108 112 112 111 111 110 106 101 97 95 92 86 82 76 72 71 66 62 63 57 54 54 53 48 43 39
99 98 102 103 102 101 103 102 101 104 106 105 98 114 122 112 107 112 113 112 112 111 111 108 103 99 92 86 82 80 77 70 63 58 55 62 58 53 57 54 45 38 39
102 105 105 105 108 105 105 101 99 105 101 97 101 115 122 115 116 113 113 112 114 113 111 109 101 92 86 81 76 70 66 62 58 57 56 61 56 54 55 49 42 40 40
105 108 107 104 104 106 107 107 101 102 103 105 110 114 117 115 115 114 113 113 111 110 106 101 96 90 83 74 66 61 63 60 55 57 57 59 52 50 50 44 38 37 38
107 109 105 102 100 103 103 101 106 110 109 109 113 116 116 115 114 114 112 110 107 104 100 94 89 85 79 70 64 61 63 64 56 55 53 53 46 44 44 39 36 39 40
102 103 104 104 103 104 107 107 108 111 114 117 117 118 118 118 117 115 114 111 108 104 98 92 85 80 76 71 65 60 60 64 59 57 56 50 46 44 40 40 42 49 47
104 104 105 110 111 113 114 115 115 119 119 123 122 122 122 119 117 116 115 114 111 104 97 89 84 79 75 69 64 59 58 61 62 57 55 50 47 46 43 48 53 53 51